SCP
0 0 0 0 0 0 0 0 0 0 0 0 0 0 0 0 0 0 0 0 0 0 0 0 0 0 0 0 0 0 0 0 0 0 0 0 0 0 0 0 0 0 0
0 0 0 1 0 0 0 0 0 0 0 0 0 0 0 0 0 0 0 0 0 0 0 0 0 0 0 0 0 0 0 0 0 0 0 0 0 0 0 0 0 0 0
0 0 1 1 1 1 0 0 0 0 0 0 0 0 0 0 0 0 0 0 0 0 0 0 0 0 0 0 0 0 0 0 0 0 0 0 0 0 0 0 0 0 0
0 0 1 1 1 1 0 0 0 0 0 0 1 1 1 0 0 0 0 0 0 0 0 0 0 0 0 0 0 0 0 0 0 0 0 0 0 0 0 0 0 0 0
0 0 0 1 1 1 1 1 0 0 0 1 1 1 1 0 0 0 0 0 0 0 0 0 0 0 0 0 0 0 0 0 0 0 0 0 0 0 0 0 0 0 0
0 0 0 1 1 1 1 1 1 1 1 1 1 1 0 0 0 0 0 0 0 0 0 0 0 0 0 0 0 0 0 0 0 0 0 0 0 0 0 0 0 0 0
0 0 0 1 1 1 1 1 1 1 1 1 1 0 0 0 0 0 0 0 0 0 0 0 0 0 0 0 0 0 0 0 0 0 0 0 0 0 0 0 0 0 0
0 0 1 1 0 0 0 0 0 0 0 0 1 0 0 0 0 0 0 0 0 0 0 0 0 0 0 0 0 0 0 0 0 0 0 0 0 0 0 0 0 0 0
0 0 1 1 1 0 0 1 1 1 0 1 0 0 0 0 0 0 0 0 0 0 0 0 0 0 0 0 0 0 0 0 0 0 0 0 0 0 0 0 0 0 0
0 0 1 1 0 0 0 1 1 0 0 0 0 0 0 0 0 0 0 0 0 0 0 0 0 0 0 0 0 0 0 0 0 0 0 0 0 0 0 0 0 0 0
0 0 0 2 0 0 0 0 0 0 0 0 0 0 0 0 0 0 0 0 0 0 0 0 0 0 0 0 0 0 0 0 0 0 0 0 0 0 0 0 0 0 0
0 0 0 2 1 1 0 0 0 0 0 0 0 0 0 0 0 0 0 0 0 0 0 0 0 0 0 0 0 0 0 0 0 0 0 0 0 0 0 0 0 0 0
0 0 0 2 2 1 0 0 0 0 0 0 0 0 0 0 0 0 0 0 0 0 0 0 0 0 0 0 0 0 0 0 0 0 0 0 0 0 0 0 0 0 0
0 0 0 1 3 1 0 0 0 0 0 0 0 0 0 0 0 0 0 0 0 0 0 0 0 0 0 0 0 0 0 0 0 0 0 0 0 0 0 0 0 0 0
0 0 0 1 4 2 1 1 0 0 0 0 0 0 0 0 0 0 0 0 0 0 0 0 0 0 0 0 0 0 0 0 0 0 0 0 0 0 0 0 0 0 0
0 0 0 1 2 2 1 1 1 0 0 0 0 0 0 0 0 0 0 0 0 0 0 0 0 0 0 0 0 0 0 0 0 0 0 0 0 0 0 0 0 0 0
0 0 0 2 2 2 2 2 1 0 0 0 0 0 0 0 0 0 0 0 0 0 0 0 0 0 0 0 0 0 0 0 0 0 0 0 0 0 0 0 0 0 0
0 0 0 1 2 2 2 1 0 0 0 0 0 0 0 0 0 0 0 0 0 0 0 0 0 0 0 0 0 0 0 0 0 0 0 0 0 0 0 0 0 0 0
0 0 0 1 2 1 0 0 0 0 0 0 0 0 0 0 0 0 0 0 0 0 0 0 0 0 0 0 0 0 0 0 0 0 0 0 0 0 0 0 0 0 0
-0 0 0 1 1 0 0 0 0 0 0 0 0 0 0 0 0 0 0 0 0 0 0 0 0 0 0 0 0 0 0 0 0 0 0 0 0 0 0 0 0 0 0
0 -0 0 0 1 0 0 0 0 0 0 0 0 0 0 0 0 0 0 0 0 0 0 0 0 0 0 0 0 0 0 0 0 0 0 0 0 0 0 0 0 0 0
0 0 0 0 0 0 0 0 0 0 0 0 0 0 0 0 0 0 0 0 0 0 0 0 0 0 0 0 0 0 0 0 0 0 0 0 0 0 0 0 0 0 0
0 -0 -0 0 0 0 0 0 0 0 0 0 0 0 0 0 0 0 0 0 0 0 0 0 0 0 0 0 0 0 0 0 0 0 0 0 0 0 0 0 0 0 0
-0 -0 0 0 0 0 0 0 0 0 0 0 0 0 0 0 0 0 0 0 0 0 0 0 0 0 0 0 0 0 0 0 0 0 0 0 0 0 0 0 0 0 0
-0 0 0 0 0 0 0 0 0 0 0 0 0 0 0 0 0 0 0 0 0 0 0 0 0 0 0 0 0 0 0 0 0 0 0 0 0 0 0 0 0 0 0
-0 0 0 0 0 0 0 0 0 0 0 0 0 0 0 0 0 0 0 0 0 0 0 0 0 0 0 0 0 0 0 0 0 0 0 0 0 0 0 0 0 0 0
Wind_Speed_500mb
45 44 46 47 53 44 49 42 65 73 75 73 70 67 64 54 49 48 41 35 30 24 23 28 27 23 18 18 20 19 15 15 22 28 25 16 6 3 6 10 13 14 18
44 44 47 51 55 56 58 49 53 70 75 73 70 68 62 58 51 46 41 34 28 25 24 26 28 22 21 19 21 18 15 22 32 29 19 12 4 2 5 7 12 15 17
43 45 54 54 52 53 67 59 55 67 74 71 70 68 64 62 58 48 40 40 34 27 25 26 26 24 22 21 16 14 16 25 35 29 12 5 9 11 9 11 14 15 17
43 43 57 65 46 60 67 67 63 71 71 69 71 74 73 68 60 52 46 44 38 31 27 25 22 23 20 18 16 20 22 22 27 30 30 19 18 13 8 16 12 15 20
50 49 64 78 58 72 83 68 56 70 74 74 72 71 67 57 51 49 50 51 43 34 30 28 25 21 19 18 19 19 20 20 16 19 23 13 10 11 14 10 16 18 23
36 55 62 78 76 76 86 84 73 79 82 83 78 76 72 62 56 59 57 52 42 36 32 29 24 20 19 19 19 18 15 12 14 17 13 9 4 3 1 6 11 15 19
33 44 70 81 80 78 82 88 90 90 93 92 85 80 72 68 60 58 58 50 42 37 32 27 23 23 21 20 18 16 14 15 14 15 13 7 5 6 9 15 18 18 19
34 30 60 79 84 84 90 97 99 100 105 101 92 86 78 73 63 59 54 45 38 32 30 28 26 23 22 22 19 18 19 20 17 15 11 5 7 13 17 20 23 23 18
51 34 42 76 78 98 95 98 101 112 111 96 100 90 89 80 76 63 54 44 37 34 32 30 28 23 24 23 22 21 22 20 17 12 7 4 9 15 20 24 24 23 16
54 44 25 68 71 88 99 93 109 105 108 88 102 101 89 78 65 65 59 49 39 40 34 34 26 28 26 25 25 25 23 18 17 12 4 5 13 18 22 22 22 20 17
66 55 30 53 65 83 93 103 108 102 106 102 92 92 83 65 71 60 61 46 45 41 37 31 32 31 29 29 27 27 23 18 14 10 3 8 15 20 21 19 19 17 16
63 57 35 41 62 80 104 111 101 85 91 105 98 83 67 60 75 64 60 51 48 40 35 37 34 33 34 32 28 26 24 17 10 6 4 12 16 19 18 17 18 17 15
62 61 35 40 64 76 91 108 98 90 92 88 97 83 55 73 87 73 63 54 49 41 42 37 35 39 38 37 31 25 22 17 10 4 7 13 17 20 19 16 15 16 13
58 62 54 43 68 76 86 92 89 81 87 99 94 76 83 87 78 72 63 56 48 45 43 39 39 40 40 37 33 27 21 15 9 4 8 14 18 19 17 14 14 10 13
58 58 57 51 73 76 73 92 91 86 93 92 77 74 77 82 79 73 62 51 50 47 46 48 46 42 38 35 31 28 22 14 6 4 11 16 19 21 19 14 12 11 12
60 66 52 49 65 69 78 91 106 100 87 79 78 73 76 93 85 71 60 58 56 54 51 49 48 44 38 34 31 24 19 13 6 7 13 19 22 23 21 15 14 13 14
68 68 57 53 67 76 91 97 116 102 98 91 88 81 81 86 79 68 66 65 61 55 54 51 46 43 37 36 30 24 19 12 5 6 14 18 20 19 16 17 18 19 17
73 73 61 33 69 79 89 98 100 109 94 92 87 89 87 86 77 74 71 64 59 55 55 52 46 43 38 34 27 24 19 9 3 9 14 17 19 16 10 8 11 15 20
63 67 50 21 64 84 95 101 98 114 106 98 93 95 93 82 81 78 73 67 59 55 54 51 48 42 41 33 28 21 15 9 5 10 15 16 19 17 13 8 7 10 16
47 41 37 23 63 84 92 94 95 96 95 95 92 97 91 89 82 77 69 63 56 57 55 50 45 41 37 33 26 21 14 9 4 8 11 15 16 19 14 13 14 15 20
46 30 27 35 63 76 78 88 90 88 89 95 94 103 97 87 77 77 69 66 64 61 55 52 50 44 36 32 29 21 15 8 2 3 7 7 12 18 17 18 19 26 24
41 30 27 38 56 77 81 87 82 88 90 82 90 96 95 86 87 77 74 67 64 61 58 56 53 46 41 33 30 24 18 9 5 1 3 3 10 15 17 19 23 23 20
38 33 35 42 56 80 86 83 84 92 85 74 89 91 79 80 81 80 77 72 61 57 58 59 56 52 45 40 33 28 19 12 8 5 5 5 9 14 14 17 19 19 20
40 35 38 44 60 72 87 76 85 89 101 81 85 78 81 86 80 76 70 62 64 60 61 61 56 52 45 39 34 29 22 18 12 11 6 3 6 11 14 14 19 21 22
39 30 44 58 68 78 79 84 90 86 92 90 102 91 89 82 85 76 60 58 51 53 60 55 49 47 41 35 28 25 23 19 15 10 6 2 3 5 11 15 18 20 19
24 37 46 62 77 78 65 73 69 75 92 98 93 89 85 84 80 72 68 54 40 45 40 38 34 32 28 29 29 29 24 19 11 6 5 5 4 6 12 14 17 18 19
Wind_Direction_500mb
283 279 262 229 222 215 211 212 216 217 213 210 207 203 203 201 197 195 197 201 199 210 226 234 230 222 233 255 268 273 261 203 191 177 163 157 163 240 305 309 326 336 346
282 270 258 229 200 205 206 229 217 218 219 213 209 207 197 193 192 190 194 199 211 222 233 226 218 227 249 254 271 264 215 196 180 181 173 160 143 227 286 303 317 325 338
272 264 249 217 197 205 195 216 239 216 217 213 210 204 195 191 191 196 201 193 209 223 227 223 229 242 248 265 248 220 213 195 190 201 202 184 230 218 249 279 305 312 324
258 258 234 218 218 223 215 218 227 216 212 211 207 202 192 189 194 200 199 198 208 219 224 225 235 238 252 240 229 200 203 213 212 208 224 250 270 222 244 262 287 299 306
244 246 231 217 214 218 219 209 215 209 208 206 203 199 196 195 192 192 197 199 209 217 219 227 237 243 234 229 218 201 188 188 197 210 228 221 210 234 253 263 272 282 293
267 241 229 222 209 216 211 208 206 206 209 207 202 202 201 196 192 189 194 202 211 220 223 227 231 227 227 221 202 190 188 172 163 167 166 152 182 148 276 282 307 287 277
280 254 227 215 210 207 205 205 200 205 210 209 203 202 201 197 197 198 199 208 216 218 220 221 219 218 219 207 196 180 158 144 158 144 130 116 73 30 12 349 335 328 313
1 264 232 218 205 200 198 189 197 202 208 209 204 203 197 198 200 207 207 215 218 218 212 215 212 216 204 192 186 168 150 147 147 138 129 93 19 12 357 349 335 342 332
1 339 241 225 212 199 197 198 199 201 203 204 206 199 199 199 194 204 210 212 211 207 210 209 204 206 194 184 175 161 157 152 146 140 141 56 1 356 352 342 338 346 338
342 342 270 234 216 213 209 203 199 198 199 196 206 202 202 198 192 200 205 202 207 203 207 201 201 196 187 175 172 163 156 152 149 148 137 28 351 349 348 339 338 343 346
338 338 326 228 223 218 210 206 200 203 203 198 202 209 207 194 200 202 200 202 205 201 199 200 201 191 180 167 170 166 153 151 151 139 40 7 348 349 348 347 339 345 342
333 335 333 222 213 212 210 205 197 207 206 203 210 202 201 193 196 198 195 200 196 197 199 197 191 182 176 167 169 160 148 149 148 119 24 355 351 354 350 351 335 343 332
325 330 341 218 206 209 208 209 208 206 198 197 202 205 201 198 198 194 194 191 192 192 192 192 187 183 172 167 162 163 152 154 150 103 8 357 2 2 349 348 342 352 342
314 328 326 224 210 206 206 199 195 200 202 206 204 197 206 196 193 193 193 185 192 192 193 187 183 180 173 165 165 159 154 151 140 78 6 3 8 4 351 338 353 353 351
305 318 329 219 206 197 192 194 186 188 187 186 185 187 198 195 192 192 187 186 191 192 192 183 177 177 177 164 164 156 151 150 131 29 10 7 2 6 358 351 4 5 26
297 307 319 218 204 192 187 190 186 188 189 190 193 199 200 195 188 186 188 187 189 186 186 180 179 177 175 160 159 155 151 146 123 20 13 7 3 6 4 19 30 23 20
288 302 310 224 202 193 193 189 193 194 188 190 197 208 202 189 187 187 182 187 186 184 179 177 178 177 172 163 163 154 148 150 114 32 20 13 9 7 3 18 11 17 20
290 296 307 244 197 191 190 188 193 188 189 191 200 205 202 186 183 181 186 185 181 179 175 175 177 174 175 171 164 158 145 156 123 39 24 19 19 15 30 20 343 357 1
295 296 301 260 207 185 182 189 188 188 193 197 194 196 190 185 182 183 184 180 177 175 174 174 175 174 178 172 169 159 155 167 79 34 27 24 27 32 48 41 16 5 17
306 300 282 237 205 184 187 186 186 193 197 199 191 189 189 185 186 190 183 179 179 174 174 172 175 181 183 172 168 164 167 166 67 37 23 23 34 35 34 48 46 49 40
304 287 279 213 188 191 187 187 188 194 195 190 189 185 185 183 190 184 181 178 176 174 173 177 179 183 190 177 173 171 178 170 125 67 31 27 35 31 28 43 44 45 30
303 299 269 209 191 191 189 189 187 190 187 189 184 184 180 182 186 180 175 179 176 176 178 185 186 185 187 185 181 182 184 174 197 89 108 75 36 24 31 39 43 40 25
289 285 246 213 193 183 190 186 185 184 178 189 188 180 176 182 184 179 178 174 179 182 183 186 181 181 177 173 179 185 186 194 190 156 157 82 30 18 34 46 47 44 38
281 272 229 200 183 179 183 195 188 181 173 169 179 181 178 182 182 181 177 176 181 184 183 180 180 181 176 180 182 187 188 196 184 163 147 87 7 17 40 44 51 48 40
269 247 213 182 180 183 185 187 185 186 187 189 182 183 180 182 181 179 175 181 184 190 182 179 183 183 179 181 183 191 191 186 176 164 152 191 7 41 61 57 51 52 44
231 213 196 172 178 175 164 177 174 177 172 165 168 177 182 184 182 176 171 174 179 176 177 174 179 172 181 183 181 182 178 172 172 158 196 207 154 111 82 64 64 57 48
Wind_Speed_850mb
45 44 46 47 53 44 49 42 65 73 75 73 70 67 64 54 49 48 41 35 30 24 23 28 27 23 18 18 20 19 15 15 22 28 25 16 6 3 6 10 13 14 18
44 44 47 51 55 56 58 49 53 70 75 73 70 68 62 58 51 46 41 34 28 25 24 26 28 22 21 19 21 18 15 22 32 29 19 12 4 2 5 7 12 15 17
43 45 54 54 52 53 67 59 55 67 74 71 70 68 64 62 58 48 40 40 34 27 25 26 26 24 22 21 16 14 16 25 35 29 12 5 9 11 9 11 14 15 17
43 43 57 65 46 60 67 67 63 71 71 69 71 74 73 68 60 52 46 44 38 31 27 25 22 23 20 18 16 20 22 22 27 30 30 19 18 13 8 16 12 15 20
50 49 64 78 58 72 83 68 56 70 74 74 72 71 67 57 51 49 50 51 43 34 30 28 25 21 19 18 19 19 20 20 16 19 23 13 10 11 14 10 16 18 23
36 55 62 78 76 76 86 84 73 79 82 83 78 76 72 62 56 59 57 52 42 36 32 29 24 20 19 19 19 18 15 12 14 17 13 9 4 3 1 6 11 15 19
33 44 70 81 80 78 82 88 90 90 93 92 85 80 72 68 60 58 58 50 42 37 32 27 23 23 21 20 18 16 14 15 14 15 13 7 5 6 9 15 18 18 19
34 30 60 79 84 84 90 97 99 100 105 101 92 86 78 73 63 59 54 45 38 32 30 28 26 23 22 22 19 18 19 20 17 15 11 5 7 13 17 20 23 23 18
51 34 42 76 78 98 95 98 101 112 111 96 100 90 89 80 76 63 54 44 37 34 32 30 28 23 24 23 22 21 22 20 17 12 7 4 9 15 20 24 24 23 16
54 44 25 68 71 88 99 93 109 105 108 88 102 101 89 78 65 65 59 49 39 40 34 34 26 28 26 25 25 25 23 18 17 12 4 5 13 18 22 22 22 20 17
66 55 30 53 65 83 93 103 108 102 106 102 92 92 83 65 71 60 61 46 45 41 37 31 32 31 29 29 27 27 23 18 14 10 3 8 15 20 21 19 19 17 16
63 57 35 41 62 80 104 111 101 85 91 105 98 83 67 60 75 64 60 51 48 40 35 37 34 33 34 32 28 26 24 17 10 6 4 12 16 19 18 17 18 17 15
62 61 35 40 64 76 91 108 98 90 92 88 97 83 55 73 87 73 63 54 49 41 42 37 35 39 38 37 31 25 22 17 10 4 7 13 17 20 19 16 15 16 13
58 62 54 43 68 76 86 92 89 81 87 99 94 76 83 87 78 72 63 56 48 45 43 39 39 40 40 37 33 27 21 15 9 4 8 14 18 19 17 14 14 10 13
58 58 57 51 73 76 73 92 91 86 93 92 77 74 77 82 79 73 62 51 50 47 46 48 46 42 38 35 31 28 22 14 6 4 11 16 19 21 19 14 12 11 12
60 66 52 49 65 69 78 91 106 100 87 79 78 73 76 93 85 71 60 58 56 54 51 49 48 44 38 34 31 24 19 13 6 7 13 19 22 23 21 15 14 13 14
68 68 57 53 67 76 91 97 116 102 98 91 88 81 81 86 79 68 66 65 61 55 54 51 46 43 37 36 30 24 19 12 5 6 14 18 20 19 16 17 18 19 17
73 73 61 33 69 79 89 98 100 109 94 92 87 89 87 86 77 74 71 64 59 55 55 52 46 43 38 34 27 24 19 9 3 9 14 17 19 16 10 8 11 15 20
63 67 50 21 64 84 95 101 98 114 106 98 93 95 93 82 81 78 73 67 59 55 54 51 48 42 41 33 28 21 15 9 5 10 15 16 19 17 13 8 7 10 16
47 41 37 23 63 84 92 94 95 96 95 95 92 97 91 89 82 77 69 63 56 57 55 50 45 41 37 33 26 21 14 9 4 8 11 15 16 19 14 13 14 15 20
46 30 27 35 63 76 78 88 90 88 89 95 94 103 97 87 77 77 69 66 64 61 55 52 50 44 36 32 29 21 15 8 2 3 7 7 12 18 17 18 19 26 24
41 30 27 38 56 77 81 87 82 88 90 82 90 96 95 86 87 77 74 67 64 61 58 56 53 46 41 33 30 24 18 9 5 1 3 3 10 15 17 19 23 23 20
38 33 35 42 56 80 86 83 84 92 85 74 89 91 79 80 81 80 77 72 61 57 58 59 56 52 45 40 33 28 19 12 8 5 5 5 9 14 14 17 19 19 20
40 35 38 44 60 72 87 76 85 89 101 81 85 78 81 86 80 76 70 62 64 60 61 61 56 52 45 39 34 29 22 18 12 11 6 3 6 11 14 14 19 21 22
39 30 44 58 68 78 79 84 90 86 92 90 102 91 89 82 85 76 60 58 51 53 60 55 49 47 41 35 28 25 23 19 15 10 6 2 3 5 11 15 18 20 19
24 37 46 62 77 78 65 73 69 75 92 98 93 89 85 84 80 72 68 54 40 45 40 38 34 32 28 29 29 29 24 19 11 6 5 5 4 6 12 14 17 18 19
Wind_Direction_850mb
283 279 262 229 222 215 211 212 216 217 213 210 207 203 203 201 197 195 197 201 199 210 226 234 230 222 233 255 268 273 261 203 191 177 163 157 163 240 305 309 326 336 346
282 270 258 229 200 205 206 229 217 218 219 213 209 207 197 193 192 190 194 199 211 222 233 226 218 227 249 254 271 264 215 196 180 181 173 160 143 227 286 303 317 325 338
272 264 249 217 197 205 195 216 239 216 217 213 210 204 195 191 191 196 201 193 209 223 227 223 229 242 248 265 248 220 213 195 190 201 202 184 230 218 249 279 305 312 324
258 258 234 218 218 223 215 218 227 216 212 211 207 202 192 189 194 200 199 198 208 219 224 225 235 238 252 240 229 200 203 213 212 208 224 250 270 222 244 262 287 299 306
244 246 231 217 214 218 219 209 215 209 208 206 203 199 196 195 192 192 197 199 209 217 219 227 237 243 234 229 218 201 188 188 197 210 228 221 210 234 253 263 272 282 293
267 241 229 222 209 216 211 208 206 206 209 207 202 202 201 196 192 189 194 202 211 220 223 227 231 227 227 221 202 190 188 172 163 167 166 152 182 148 276 282 307 287 277
280 254 227 215 210 207 205 205 200 205 210 209 203 202 201 197 197 198 199 208 216 218 220 221 219 218 219 207 196 180 158 144 158 144 130 116 73 30 12 349 335 328 313
1 264 232 218 205 200 198 189 197 202 208 209 204 203 197 198 200 207 207 215 218 218 212 215 212 216 204 192 186 168 150 147 147 138 129 93 19 12 357 349 335 342 332
1 339 241 225 212 199 197 198 199 201 203 204 206 199 199 199 194 204 210 212 211 207 210 209 204 206 194 184 175 161 157 152 146 140 141 56 1 356 352 342 338 346 338
342 342 270 234 216 213 209 203 199 198 199 196 206 202 202 198 192 200 205 202 207 203 207 201 201 196 187 175 172 163 156 152 149 148 137 28 351 349 348 339 338 343 346
338 338 326 228 223 218 210 206 200 203 203 198 202 209 207 194 200 202 200 202 205 201 199 200 201 191 180 167 170 166 153 151 151 139 40 7 348 349 348 347 339 345 342
333 335 333 222 213 212 210 205 197 207 206 203 210 202 201 193 196 198 195 200 196 197 199 197 191 182 176 167 169 160 148 149 148 119 24 355 351 354 350 351 335 343 332
325 330 341 218 206 209 208 209 208 206 198 197 202 205 201 198 198 194 194 191 192 192 192 192 187 183 172 167 162 163 152 154 150 103 8 357 2 2 349 348 342 352 342
314 328 326 224 210 206 206 199 195 200 202 206 204 197 206 196 193 193 193 185 192 192 193 187 183 180 173 165 165 159 154 151 140 78 6 3 8 4 351 338 353 353 351
305 318 329 219 206 197 192 194 186 188 187 186 185 187 198 195 192 192 187 186 191 192 192 183 177 177 177 164 164 156 151 150 131 29 10 7 2 6 358 351 4 5 26
297 307 319 218 204 192 187 190 186 188 189 190 193 199 200 195 188 186 188 187 189 186 186 180 179 177 175 160 159 155 151 146 123 20 13 7 3 6 4 19 30 23 20
288 302 310 224 202 193 193 189 193 194 188 190 197 208 202 189 187 187 182 187 186 184 179 177 178 177 172 163 163 154 148 150 114 32 20 13 9 7 3 18 11 17 20
290 296 307 244 197 191 190 188 193 188 189 191 200 205 202 186 183 181 186 185 181 179 175 175 177 174 175 171 164 158 145 156 123 39 24 19 19 15 30 20 343 357 1
295 296 301 260 207 185 182 189 188 188 193 197 194 196 190 185 182 183 184 180 177 175 174 174 175 174 178 172 169 159 155 167 79 34 27 24 27 32 48 41 16 5 17
306 300 282 237 205 184 187 186 186 193 197 199 191 189 189 185 186 190 183 179 179 174 174 172 175 181 183 172 168 164 167 166 67 37 23 23 34 35 34 48 46 49 40
304 287 279 213 188 191 187 187 188 194 195 190 189 185 185 183 190 184 181 178 176 174 173 177 179 183 190 177 173 171 178 170 125 67 31 27 35 31 28 43 44 45 30
303 299 269 209 191 191 189 189 187 190 187 189 184 184 180 182 186 180 175 179 176 176 178 185 186 185 187 185 181 182 184 174 197 89 108 75 36 24 31 39 43 40 25
289 285 246 213 193 183 190 186 185 184 178 189 188 180 176 182 184 179 178 174 179 182 183 186 181 181 177 173 179 185 186 194 190 156 157 82 30 18 34 46 47 44 38
281 272 229 200 183 179 183 195 188 181 173 169 179 181 178 182 182 181 177 176 181 184 183 180 180 181 176 180 182 187 188 196 184 163 147 87 7 17 40 44 51 48 40
269 247 213 182 180 183 185 187 185 186 187 189 182 183 180 182 181 179 175 181 184 190 182 179 183 183 179 181 183 191 191 186 176 164 152 191 7 41 61 57 51 52 44
231 213 196 172 178 175 164 177 174 177 172 165 168 177 182 184 182 176 171 174 179 176 177 174 179 172 181 183 181 182 178 172 172 158 196 207 154 111 82 64 64 57 48